www.pogodaiklimat.ru

Погода и климат >> Архив погоды >> Россия >> Мурманская область >> Зареченск


ПОГОДА в Зареченске

  • Прогноз погоды в Зареченске
  • Монитор погоды в Зареченске

АРХИВ ПОГОДЫ в Зареченске

Время (UTC), дата Ветер
(напр.,м/с)
 
Видим.   Явления Облачность Т
(С)
Тd
(С)
f
(%)
Тe
(С)
Тes
(С)
Комфортность P
(гПа)
Po
(гПа)
Тmin
(С)
Tmax
(С)
R
(мм)
R24
(мм)
S
(см)
06 16.08 Ю 1 20 км 9/9 600 м
[Sc]
+12.9 +11.3 90 +13 +13 1007.8 1002.7 +8.1
12 16.08 ЮЗ 3 50 км 9/8 600 м
[Cu Sc Ac trans]
+16.2 +10.9 71 +16 +16 1009.1 1004.0
18 16.08 ЮЗ 1 20 км {ливн. осадки} 8/4 600 м
[Cu Sc Ac trans]
+14.3 +13.8 97 +15 +15 1011.8 1006.7 +18.1 1
00 17.08 З 1 2000 м дымка 1/0
[Ci fib]
+7.4 +7.3 99 +6 +6 1013.3 1008.0
06 17.08 З 1 20 км 2 балла +14.8 +12.7 87 +15 +19 1013.1 1008.0 +6.5
12 17.08 ЮЗ 4 50 км 9/4 600 м
[Sc Ac As]
+18.3 +11.4 64 +18 +19 1013.1 1008.0
18 17.08 ЮЗ 2 50 км 9/4 600 м
[Sc Ac trans Cc]
+17.6 +11.4 67 +18 +18 1013.1 1008.0 +20.0
00 18.08 З 1 20 км 8/4 600 м
[Sc Ac trans]
+14.8 +11.4 80 +15 +15 1014.4 1009.3
06 18.08 ЮЗ 3 50 км 9/4 600 м
[Sc Ac trans Ci fib]
+17.2 +12.1 72 +17 +17 1014.4 1009.3 +14.0
12 18.08 ЮЗ 3-6
{11}
10 км слаб. ливневой дождь 9/9 600 м
[Cb cap]
+21.9 +12.4 55 +24 +25 комфорт 1014.3 1009.3
18 18.08 Ю 2 50 км {ливн. осадки} ясно +19.7 +8.7 49 +21 +21 комфорт 1014.4 1009.3 +23.6 0.0
00 19.08 З 1 20 км 8/4 600 м
[Sc Ac trans]
+16.4 +8.9 61 +17 +17 1014.4 1009.3
06 19.08 В 2 50 км 3/0
[Ac trans]
+16.9 +10.7 67 +17 +20 1013.1 1008.0 +11.5
12 19.08 Ю 2-5
{11}
50 км 9/5 600 м
[Cu Sc Ac trans Cs]
+21.1 +10.9 52 +23 +23 комфорт 1009.0 1004.0
18 19.08 Ю 2 20 км {ливн. осадки} 10/8 600 м
[Sc Ac und]
+17.8 +12.7 72 +18 +18 1007.8 1002.7 +21.8 0.0
00 20.08 З 2 20 км 3/3 600 м
[Sc]
+15.5 +13.4 87 +15 +15 1006.9 1001.7
06 20.08 ЮЗ 3 50 км 4/3 600 м
[Cu hum Ac trans]
+17.1 +12.8 76 +17 +19 1009.1 1004.0 +13.2
12 20.08 ЮЗ 4-7
{10}
50 км 6/6 600 м
[Cu med, cong]
+21.3 +10.1 49 +23 +24 комфорт 1010.3 1005.3
18 20.08 З 2 50 км 4 балла +15.0 +11.6 80 +15 +15 1013.1 1008.0 +21.3 0.4
00 21.08 З 2 20 км 2 балла +12.3 +11.0 92 +11 +11 1014.5 1009.3
06 21.08 З 2 20 км 6 баллов +15.1 +12.4 84 +15 +16 1015.8 1010.7 +9.9 0.5
12 21.08 ЮЗ 3 20 км гроза без осадков 7 баллов +18.1 +11.9 67 +18 +20 1015.8 1010.7
18 21.08 штиль 0 20 км гроза без осадков 4 балла +14.0 +12.2 89 +14 +14 1015.9 1010.7 +20.0
00 22.08 З 1 20 км 1 балл +9.1 +8.6 97 +8 +8 1016.0 1010.7
06 22.08 ЮЗ 3 20 км 9 баллов +13.4 +11.3 87 +12 +12 1015.9 1010.7 +8.2
12 22.08 З 2 20 км гроза без осадков 7 баллов +18.2 +10.8 62 +19 +21 1014.4 1009.3
18 22.08 ЮЗ 1 20 км 6 баллов +13.5 +10.3 81 +14 +14 1014.5 1009.3 +19.8 0.1
00 23.08 З 1 20 км ясно +10.2 +8.6 90 +10 +10 1015.9 1010.7

 

Местоположение метеостанции Зареченск (Мурманская область, Россия): широта 66.68 долгота 31.43 высота над уровнем моря 43 м.

В архиве по умолчанию представлена погода в Зареченске за последнюю неделю. Архивные данные за месяц целиком и за предыдущие месяцы, начиная с января 2011 года, Вы можете получить, выбрав интересующий диапазон дат из раскрывающегося списка и нажав кнопку "Ввод!".


*Определитесь, кто Вы:
робот инопланетянин человек

Внимание! Время в таблицах - всемирное. Для получения местного времени необходимо прибавить поправку, которая равна 3 ч.

Смотрите также архив погоды в соседних городах и на ближайших метеорологических станциях:

Погода в Зашейке (Карелия, Россия) (50 км)
Погода в Алакуртти (Мурманская область, Россия) (55 км)
Погода в Порту Витино (Мурманская область, Россия) (59 км)
Погода в Ковде (Мурманская область, Россия) (64 км)
Погода в Кандалакше (Мурманская область, Россия) (66 км)
Погода в Порту Кандалакша (Мурманская область, Россия) (66 км)
Погода в Зашейке (Мурманская область, Россия) (94 км)
Погода в Оуланке (Финляндия) (99 км)
Погода в Куусамо Киутаконгас (Финляндия) (100 км)
Погода в Ковдоре (Мурманская область, Россия) (108 км)

Пояснения к столбцам:

Ветер - указаны скорость ветра в м/с - средняя за 10 мин, порывы в срок и между сроками (в фигурных скобках) и направление, откуда дует ветер: С - северный, СВ - северо-восточный, В - восточный, ЮВ - юго-восточный, Ю - южный, ЮЗ - юго-западный, З - западный, СЗ - северо-западный.
Видимость - горизонтальная дальность видимости в метрах или километрах. При видимости от 1 до 10 км при отсутствии осадков обычно наблюдается дымка, при ухудшении видимости до 1 км и менее - туман. В сухую погоду видимость может ухудшаться дымом, пылью или мглою.
Явления - указаны атмосферные явления, наблюдавшиеся в срок или в последний час перед сроком; фигурными скобками обозначены явления, наблюдавшиеся между сроками (за 1-3 часа до срока); квадратными скобками обозначены град или гололедные отложения с указанием их диаметра в мм.
Облачность - указаны через наклонную черту общая и нижняя облачность в баллах и высота нижней границы облаков в метрах; квадратными скобками обозначены формы облаков: Ci - перистые, Cs - перисто-слоистые, Cc - перисто-кучевые, Ac - высококучевые, As - высокослоистые, Sc - слоисто-кучевые, Ns - слоисто-дождевые, Cu - кучевые, Cb - кучево-дождевые. Подробнее классификацию облаков см. в Атласе облаков (PDF).
T - Температура воздуха - температура, измеренная на высоте 2 м над землей.
Td - Температура точки росы - температура, при понижении до которой содержащийся в воздухе водяной пар достигнет насыщения.
f - Относительная влажность воздуха - влажноcть воздуха, измеренная на высоте 2 м над землей.
Te - Эффективная температура - температура, которую ощущает одетый по сезону человек в тени. Характеристика душности погоды. При расчете учитывается влияние влажности воздуха и скорости ветра на теплоощущения человека.
Tes - Эффективная температура на солнце - температура, которую ощущает человек, с поправкой на солнечный нагрев. Характеристика знойности погоды. Зависит от высоты солнца над горизонтом, облачности и скорости ветра. Ночью, в пасмурную погоду, а также при ветре 12 м/с и более поправка равна нулю.
P - Атмосферное давление - приведенное к уровню моря атмосферное давление.
Po - Атмосферное давление - измеренное на уровне метеостанции атмосферное давление.
Tmin - Минимальная температура - минимум температуры воздуха на высоте 2 м над землей.
Tmax - Максимальная температура - максимум температуры воздуха на высоте 2 м над землей.
R - Количество осадков - Количество выпавших осадков за период времени, мм. При наведении курсора мыши на число - период времени, за который выпало указанное количество осадков.
R24 - Количество осадков - Количество выпавших осадков за 24 часа, мм.
S - Снежный покров - Высота снежного покрова, см. При наведении курсора мыши на число - состояние снежного покрова и степень покрытия местности в баллах.